Miscellaneous Local Product
Issued by NWS North Platte, NE

Home | Current Version | Previous Version | Text Only | Print | Product List | Glossary On
Versions: 1 2 3 4 5 6 7 8 9 10 11 12 13 14 15 16 17 18 19 20 21 22 23 24 25 26 27 28 29 30 31 32 33 34 35 36 37 38 39 40 41 42 43 44 45 46 47 48 49 50
000
AXUS43 KLBF 230710
MISLBF


WESTERN AND NORTH CENTRAL NEBRASKA HOURLY WEATHER ROUNDUP
NATIONAL WEATHER SERVICE NORTH PLATTE NE
200 AM CDT MON OCT 23 2017

NOTE: "FAIR" INDICATES FEW OR NO CLOUDS BELOW 12,000 FEET WITH NO
SIGNIFICANT WEATHER AND/OR OBSTRUCTIONS TO VISIBILITY.

NOTE: STATIONS NOT REPORTING VARIABLES SUCH AS SKY/WEATHER OR
PRESSURE ARE PROVIDED BY RAWS AND APRS NETWORKS AND ARE NOT UNDER
NATIONAL WEATHER SERVICE QUALITY CONTROL.

...OBSERVATIONS IN AND NEAR THE EASTERN PANHANDLE OF NEBRASKA...

CITY           SKY/WX    TMP DP  RH WIND       PRES   REMARKS
PINE RIDGE     CLOUDY    56  34  43 NW17G28   30.05R
GORDON         FAIR      56  32  40 N22G31    30.03R
CHADRON        CLOUDY    56  31  38 NW10      30.10R
ALLIANCE       CLOUDY    53  31  42 NW14      30.04R
SIDNEY         CLEAR     52  30  43 W12       30.09R
CRESCENT LAKE    N/A     57  31  37 NW13        N/A
$$

...OBSERVATIONS IN NORTHERN NEBRASKA AND FAR SOUTHERN SOUTH DAKOTA...

CITY           SKY/WX    TMP DP  RH WIND       PRES   REMARKS
WINNER         MOCLDY    56  42  59 NW15      29.94R
VALENTINE      CLOUDY    57  39  51 N17       29.97R
THEDFORD       CLOUDY    53  36  52 NW8       29.98R
AINSWORTH      PTCLDY    59  35  41 NW25G33   29.95R
O`NEILL        CLOUDY    54  38  54 W12       29.87R
ORD            PTCLDY    46  35  65 CALM      29.88F
BROKEN BOW     CLEAR     52  35  52 W10       29.91F
VALENTINE NWR    N/A     59  33  37 NW13G22     N/A
HALSEY           N/A     56  33  41 W7          N/A
BUTTE            N/A     56  37  49 NW14G21     N/A
CHAMBERS         N/A     53  34  49 CALM        N/A
EWING            N/A     50  35  56 CALM        N/A
$$

...OBSERVATIONS IN SOUTHWEST NEBRASKA AND FAR NORTHEAST COLORADO...

CITY           SKY/WX    TMP DP  RH WIND       PRES   REMARKS
HOLYOKE        FAIR      45  32  61 W6        30.06R
IMPERIAL       CLEAR     45  32  60 W7        30.03S
OGALLALA       CLEAR     42  33  69 CALM      30.01R
NORTH PLATTE   CLOUDY    40  36  86 NW5       29.98S
MCCOOK         CLEAR     50  30  46 W12       30.00S
LEXINGTON      CLEAR     45  32  60 W3        29.95F
STAPLETON        N/A     50  35  57 CALM        N/A
GOTHENBURG       N/A     50  30  46 CALM        N/A
CALLAWAY         N/A     53  37  54 W5          N/A
$$

...OBSERVATIONS IN CENTRAL LINCOLN COUNTY AREA...

CITY           SKY/WX    TMP DP  RH WIND       PRES   REMARKS
N.P. AIRPORT   CLOUDY    40  36  86 NW5       29.98S
N.P. DOWNTOWN    N/A     44  37  75 CALM        N/A
N.P. SOUTHEAST   N/A     46  36  68 CALM        N/A
N.P. HILLCREST   N/A     49  35  59 NW5         N/A
$$

...SOME OBSERVATIONS FROM AROUND THE REGION...

CITY           SKY/WX    TMP DP  RH WIND       PRES   REMARKS
DENVER         CLOUDY    61  24  24 NW18G25   30.14F
LIMON          CLOUDY    35  27  72 NW5       30.17R WCI  31
ASPEN          CLOUDY    32  27  81 SW8       30.50R WCI  25
LARAMIE        CLOUDY    47  27  45 W36G49    30.24F
CASPER         CLOUDY    47  32  56 CALM      30.22R
CHEYENNE       CLEAR     54  28  36 NW25G45   30.20R
SCOTTSBLUFF    CLOUDY    60  31  33 W18G29    30.06R
GRAND ISLAND   CLEAR     51  30  44 SW12      29.92S
OMAHA          PTCLDY    47  36  65 SE7       29.93F
SIOUX FALLS    CLEAR     52  35  52 SW5       29.80F
PIERRE         CLOUDY    54  45  71 W13       29.90R
RAPID CITY     CLOUDY    54  23  30 NW33G43   30.03R
BISMARCK       CLOUDY    52  40  63 NW15      29.79R
KANSAS CITY    CLEAR     42  39  89 S9        30.01F
HILL CITY      CLEAR     49  30  48 W7        30.00F
WICHITA        PTCLDY    46  42  86 S8        30.03F
DODGE CITY     CLEAR     50  30  46 SW10      30.04F
OKLAHOMA CITY  PTCLDY    47  39  74 S6        30.10F
DALLAS         CLEAR     53  43  68 S6        30.12F
AMARILLO       CLOUDY    49  34  56 SW8       30.12F
$$




USA.gov is the U.S. government's official web portal to all federal, state and local government web resources and services.